sat.trackr.live / text

‹ back to catalog

QIANFAN-58

NORAD 62788 · 2025-016D

PAYLOAD ACTIVE UNKNOWN

§ Identity

Operator
Country
PRC
Launch date
2025-01-23
Launch site
TAISC
Launch vehicle
Mass (kg)
RCS (m²)

External: N2YO · Heavens-Above · Gunter

§ Orbital elements

Epoch: 2026-09-22T21:38:37.769856Z

Period
106.59 min
Inclination
88.9649°
Eccentricity
0.0012294
Mean motion
13.51027504 rev/d
Perigee alt
1,059.3 km
Apogee alt
1,077.6 km
Semi-major
7,446.6 km
B*
6.9950e-5
RAAN
73.4544°
Arg perigee
238.2453°
Mean anomaly
121.7501°
Rev number
8,561

§ Raw data

QIANFAN-581 62788U 25016D   26265.90182604  .00000057  00000+0  69950-4 0  99902 62788  88.9649  73.4544 0012294 238.2453 121.7501 13.51027504 85614

JSON: /api/v1/satellites/62788 · /tle

For live sub-satellite position, see the globe view (requires WebGL).

§ Visibility from observer

Set your observer location to see the next 7 days of passes ≥ 10°. The values pass through the URL so the page stays shareable.

No JS? Fill the form by hand. The geolocation button needs JavaScript.